Tavèrnoles





Hora UTC 20:35
Temperatura -0.3 ºC
Humitat 91.0 %
Pressió 1001.5 hPa
Pluja 0.0 mm
Velocitat vent 1.6 km/h
Direcció vent S
Radiació solar 0.0 W/m²

Dades diàries 2021-11-27



Hora UTC (hivern +1h; estiu +2h)
Temperatura (ºC) Humitat (%) Pressió (hPa) Velocitat vent (km/h) Precipitació (mm) Radiació solar (W/m²)
Hora UTC Aire Humitat Pressió Vel. Dir. Vel. Max Dir. Intent. màx 5 min. Rad. Sol.
00:05 4.3 89.0 1003.0 0.0 SSE 0.0 0.0 0.0
00:10 4.3 89.0 1002.9 0.0 SSE 0.0 0.0 0.0
00:15 4.3 89.0 1002.8 0.0 SSE 0.0 0.0 0.0
00:20 4.2 90.0 1002.7 0.0 SSE 0.0 0.0 0.0
00:25 4.3 90.0 1002.4 0.0 SSE 0.0 0.0 0.0
00:30 4.3 90.0 1002.4 0.0 SSE 0.0 0.0 0.0
00:35 4.3 90.0 1002.4 0.0 SSE 0.0 0.0 0.0
00:40 4.3 90.0 1002.4 0.0 SSE 0.0 0.0 0.0
00:45 4.2 90.0 1002.3 0.0 SSE 0.0 0.0 0.0
00:50 4.2 90.0 1002.3 0.0 SSE 0.0 0.0 0.0
00:55 4.2 90.0 1002.3 0.0 SSE 0.0 0.0 0.0
01:00 4.2 90.0 1002.2 0.0 SSE 0.0 0.0 0.0
01:05 4.1 89.0 1002.1 0.0 SSE 0.0 0.0 0.0
01:10 4.0 89.0 1002.1 0.0 SSE 0.0 0.0 0.0
01:15 3.9 89.0 1002.2 0.0 SSE 0.0 0.0 0.0
01:20 3.8 89.0 1002.1 0.0 SSE 0.0 0.0 0.0
01:25 3.7 89.0 1002.0 0.0 SSE 0.0 0.0 0.0
01:30 3.7 89.0 1002.0 0.0 SSE 0.0 0.0 0.0
01:35 3.5 89.0 1002.0 0.0 SSE 0.0 0.0 0.0
01:40 3.3 88.0 1001.9 0.0 SSE 0.0 0.0 0.0
01:45 2.9 88.0 1001.9 0.0 SSE 0.0 0.0 0.0
01:50 2.7 88.0 1001.8 0.0 SSE 0.0 0.0 0.0
01:55 2.4 89.0 1001.8 0.0 SSE 0.0 0.0 0.0
02:00 2.3 89.0 1001.8 0.0 SSE 3.2 0.0 0.0
02:05 2.3 90.0 1001.8 0.0 SSW 9.7 0.0 0.0
02:10 2.3 90.0 1001.7 0.0 SSW 9.7 0.0 0.0
02:15 2.3 90.0 1001.7 0.0 SSW 3.2 0.0 0.0
02:20 2.4 90.0 1001.6 0.0 W 4.8 0.0 0.0
02:25 2.6 89.0 1001.6 1.6 WNW 4.8 0.0 0.0
02:30 2.7 88.0 1001.6 0.0 W 4.8 0.0 0.0
02:35 2.8 87.0 1001.5 0.0 WNW 6.4 0.0 0.0
02:40 2.8 87.0 1001.6 0.0 WNW 6.4 0.0 0.0
02:40 2.8 87.0 1001.5 0.0 W 6.4 0.0 0.0
02:45 2.8 86.0 1001.3 0.0 W 6.4 0.0 0.0
02:50 2.8 86.0 1001.3 0.0 SW 1.6 0.0 0.0
02:55 2.8 86.0 1001.1 0.0 SW 1.6 0.0 0.0
03:00 2.7 86.0 1001.0 0.0 SW 1.6 0.0 0.0
03:05 2.6 86.0 1001.0 0.0 SW 1.6 0.0 0.0
03:10 2.4 88.0 1000.8 0.0 SW 0.0 0.0 0.0
03:15 2.4 88.0 1000.8 0.0 SW 0.0 0.0 0.0
03:20 2.4 88.0 1000.7 0.0 SW 0.0 0.0 0.0
03:25 2.4 89.0 1000.5 0.0 S 1.6 0.0 0.0
03:30 2.4 89.0 1000.6 0.0 S 1.6 0.0 0.0
03:35 2.4 89.0 1000.5 0.0 S 3.2 0.0 0.0
03:40 2.5 89.0 1000.3 0.0 NW 6.4 0.0 0.0
03:45 2.6 88.0 1000.4 0.0 W 6.4 0.0 0.0
03:50 2.6 88.0 1000.5 1.6 NW 6.4 0.0 0.0
03:55 2.6 88.0 1000.4 0.0 NW 8.0 0.0 0.0
04:00 2.6 88.0 1000.4 1.6 NNW 8.0 0.0 0.0
04:05 2.6 88.0 1000.4 0.0 NNW 8.0 0.0 0.0
04:10 2.6 88.0 1000.4 1.6 NW 3.2 0.0 0.0
04:15 2.6 87.0 1000.2 0.0 NW 3.2 0.0 0.0
04:20 2.6 88.0 1000.2 0.0 NW 3.2 0.0 0.0
04:25 2.7 88.0 1000.0 0.0 NW 1.6 0.0 0.0
04:30 2.6 88.0 999.9 0.0 NW 1.6 0.0 0.0
04:40 2.6 87.0 999.8 0.0 NW 1.6 0.0 0.0
04:45 2.7 88.0 1000.0 0.0 NW 0.0 0.0 0.0
04:50 2.6 88.0 999.9 0.0 NW 0.0 0.0 0.0
04:55 2.6 88.0 999.8 0.0 NW 0.0 0.0 0.0
05:00 2.6 87.0 999.7 0.0 NW 0.0 0.0 0.0
05:05 2.6 88.0 999.6 0.0 NW 0.0 0.0 0.0
05:10 2.6 87.0 999.6 0.0 NW 0.0 0.0 0.0
05:15 2.6 88.0 999.6 0.0 NW 0.0 0.0 0.0
05:20 2.6 88.0 999.6 0.0 NW 0.0 0.0 0.0
05:25 2.6 88.0 999.6 0.0 NW 0.0 0.0 0.0
05:30 2.7 88.0 999.4 0.0 NW 0.0 0.0 0.0
05:35 2.7 87.0 999.4 0.0 NW 0.0 0.0 0.0
05:40 2.7 88.0 999.3 0.0 NW 0.0 0.0 0.0
05:45 2.6 88.0 999.4 0.0 NW 0.0 0.0 0.0
05:50 2.7 89.0 999.4 0.0 NW 0.0 0.0 0.0
05:55 2.7 88.0 999.5 0.0 NW 1.6 0.0 0.0
06:00 2.7 88.0 999.6 0.0 WNW 3.2 0.0 0.0
06:05 2.7 88.0 999.5 0.0 WNW 3.2 0.0 0.0
06:10 2.7 87.0 999.5 1.6 SSW 4.8 0.0 0.0
06:15 2.7 88.0 999.5 0.0 SSW 4.8 0.0 0.0
06:20 2.8 87.0 999.4 0.0 SSW 4.8 0.0 0.0
06:25 2.8 87.0 999.4 0.0 SSW 3.2 0.0 0.0
06:30 2.8 87.0 999.3 0.0 SSW 3.2 0.0 0.0
06:35 2.8 87.0 999.2 0.0 SSW 0.0 0.0 0.0
06:40 2.8 86.0 999.0 0.0 SSW 1.6 0.0 0.0
06:45 2.8 86.0 999.0 0.0 W 3.2 0.0 0.0
06:50 2.9 87.0 999.0 3.2 S 3.2 0.0 0.0
06:55 2.9 86.0 999.0 0.0 SSW 4.8 0.0 0.0
07:00 2.9 86.0 999.0 1.6 S 8.0 0.0 0.0
07:05 3.0 86.0 999.0 0.0 SSW 8.0 0.0 0.0
07:10 3.1 86.0 999.0 3.2 NW 6.4 0.0 0.0
07:15 3.1 86.0 999.0 1.6 SSW 6.4 0.0 5.0
07:20 3.1 86.0 999.0 0.0 W 6.4 0.0 7.0
07:25 3.2 86.0 998.9 0.0 W 3.2 0.0 9.0
07:30 3.2 85.0 999.0 0.0 W 0.0 0.0 12.0
07:35 3.2 86.0 998.9 0.0 SSW 4.8 0.0 14.0
07:40 3.2 85.0 998.8 0.0 SSW 4.8 0.0 21.0
07:45 3.3 85.0 998.9 0.0 WNW 1.6 0.0 19.0
07:50 3.3 85.0 999.0 3.2 WNW 8.0 0.0 16.0
07:55 3.3 85.0 999.0 0.0 W 8.0 0.0 21.0
08:00 3.4 85.0 999.1 0.0 W 4.8 0.0 25.0
08:05 3.4 85.0 999.2 1.6 WNW 1.6 0.0 21.0
08:10 3.4 85.0 999.2 3.2 N 4.8 0.0 21.0
08:15 3.4 85.0 999.2 1.6 NNW 4.8 0.0 21.0
08:20 3.4 85.0 999.2 3.2 NNW 4.8 0.0 23.0
08:25 3.4 85.0 999.2 0.0 N 4.8 0.0 30.0
08:30 3.4 85.0 999.2 0.0 N 4.8 0.0 33.0
08:35 3.4 85.0 999.2 0.0 N 4.8 0.0 39.0
08:40 3.4 84.0 999.1 0.0 ENE 4.8 0.0 39.0
08:45 3.5 84.0 999.0 0.0 ENE 3.2 0.0 46.0
08:50 3.5 85.0 998.9 0.0 ENE 1.6 0.0 47.0
08:55 3.5 85.0 999.0 0.0 ENE 0.0 0.0 47.0
09:00 3.6 84.0 998.9 0.0 ENE 0.0 0.0 47.0
09:05 3.6 84.0 998.8 0.0 ENE 0.0 0.0 54.0
09:10 3.7 84.0 998.8 0.0 ENE 0.0 0.0 76.0
09:15 3.8 84.0 998.8 0.0 ENE 0.0 0.0 72.0
09:20 3.9 83.0 998.8 0.0 ESE 0.0 0.0 90.0
09:25 3.9 82.0 998.8 0.0 ESE 0.0 0.0 84.0
09:30 4.0 83.0 998.9 0.0 ESE 0.0 0.0 86.0
09:35 4.1 83.0 999.0 0.0 SSE 1.6 0.0 84.0
09:40 4.2 83.0 999.0 0.0 SSE 1.6 0.0 77.0
09:45 4.2 82.0 998.9 0.0 SSE 0.0 0.0 93.0
09:50 4.3 82.0 999.0 0.0 SSE 0.0 0.0 83.0
09:55 4.4 82.0 999.1 0.0 SSE 1.6 0.0 69.0
10:00 4.4 82.0 999.2 0.0 SSE 1.6 0.0 67.0
10:05 4.6 82.0 999.2 0.0 SSE 0.0 0.0 76.0
10:10 4.6 82.0 999.1 0.0 SSE 0.0 0.0 84.0
10:15 4.7 82.0 999.1 0.0 SSE 0.0 0.0 70.0
10:20 4.7 81.0 999.1 0.0 SSE 1.6 0.0 84.0
10:25 4.7 82.0 999.0 0.0 SSE 1.6 0.0 104.0
10:30 4.8 81.0 999.0 0.0 NNW 1.6 0.0 102.0
10:35 4.8 81.0 998.9 0.0 NNW 1.6 0.0 111.0
10:40 4.9 82.0 998.8 0.0 NNW 1.6 0.0 113.0
10:45 4.9 81.0 998.8 1.6 N 4.8 0.0 125.0
10:50 5.1 81.0 998.7 3.2 N 8.0 0.0 125.0
10:55 5.1 81.0 998.6 1.6 NNW 8.0 0.0 118.0
11:00 5.1 81.0 998.7 0.0 NNW 8.0 0.0 118.0
11:05 5.2 81.0 998.6 0.0 NNW 1.6 0.0 118.0
11:05 5.4 81.0 998.5 0.0 NNW 0.0 0.0 156.0
11:10 5.5 79.0 998.5 0.0 NNW 1.6 0.0 149.0
11:15 5.6 80.0 998.5 0.0 NW 1.6 0.0 111.0
11:20 5.7 78.0 998.6 0.0 NW 1.6 0.0 100.0
11:25 5.7 79.0 998.6 0.0 NW 1.6 0.0 86.0
11:30 5.7 79.0 998.5 0.0 NW 1.6 0.0 76.0
11:35 5.6 79.0 998.5 1.6 NNE 4.8 0.0 95.0
11:40 5.7 79.0 998.4 0.0 NNE 4.8 0.0 149.0
11:45 5.8 79.0 998.5 3.2 N 4.8 0.0 128.0
11:50 5.8 79.0 998.4 0.0 NW 4.8 0.0 130.0
11:55 5.9 78.0 998.4 1.6 N 8.0 0.0 156.0
12:00 6.0 79.0 998.4 0.0 NNW 8.0 0.0 155.0
12:05 6.1 78.0 998.4 0.0 SE 4.8 0.0 179.0
12:10 6.2 78.0 998.2 0.0 NNE 3.2 0.0 302.0
12:20 6.6 77.0 998.1 0.0 NNE 6.4 0.0 302.0
12:25 7.0 77.0 998.2 8.0 NNW 9.7 0.0 533.0
12:30 7.3 76.0 998.1 0.0 N 9.7 0.0 439.0
12:35 7.6 76.0 998.1 3.2 NNW 9.7 0.0 570.0
12:40 7.8 75.0 998.1 0.0 WNW 9.7 0.0 469.0
12:45 7.9 73.0 998.0 4.8 NNW 9.7 0.0 608.0
12:50 8.2 73.0 998.0 1.6 NNW 9.7 0.0 608.0
12:55 8.5 73.0 997.9 3.2 NNW 9.7 0.0 338.0
13:00 8.4 71.0 997.9 0.0 NNW 9.7 0.0 244.0
13:05 8.3 71.0 997.8 0.0 N 9.7 0.0 179.0
13:10 8.2 72.0 997.6 1.6 NW 9.7 0.0 269.0
13:15 8.2 72.0 997.5 0.0 N 6.4 0.0 269.0
13:20 8.3 70.0 997.3 1.6 NNW 9.7 0.0 230.0
13:25 8.3 71.0 997.3 3.2 NNW 9.7 0.0 230.0
13:30 8.4 69.0 997.4 1.6 NW 8.0 0.0 230.0
13:35 8.4 69.0 997.2 3.2 ENE 12.9 0.0 230.0
13:40 8.7 67.0 997.3 3.2 NNW 12.9 0.0 230.0
13:45 8.8 68.0 997.2 1.6 WSW 12.9 0.0 230.0
13:50 8.9 68.0 997.4 0.0 SSW 8.0 0.0 230.0
13:55 9.1 67.0 997.4 1.6 SSW 9.7 0.0 230.0
14:00 9.2 66.0 997.1 12.9 S 12.9 0.0 230.0
14:05 9.3 69.0 996.9 6.4 S 16.1 0.0 230.0
14:10 9.6 65.0 996.8 3.2 SSW 16.1 0.0 230.0
14:15 10.0 64.0 996.9 0.0 SW 12.9 0.0 230.0
14:20 10.1 63.0 997.0 0.0 S 6.4 0.0 230.0
14:25 10.3 64.0 997.3 11.3 SSW 12.9 0.0 230.0
14:30 10.2 65.0 997.5 6.4 SSW 17.7 0.0 230.0
14:35 9.7 65.0 997.6 1.6 S 17.7 0.0 230.0
14:40 9.2 67.0 997.6 0.0 S 12.9 0.0 230.0
14:45 8.7 68.0 997.6 4.8 S 9.7 0.0 230.0
14:50 8.3 70.0 997.8 1.6 S 9.7 0.0 230.0
14:55 7.9 73.0 998.0 8.0 SSW 8.0 0.0 230.0
15:00 7.7 73.0 998.0 0.0 SSW 8.0 0.0 46.0
15:05 7.6 74.0 998.1 3.2 SSE 8.0 0.0 46.0
15:10 7.6 73.0 998.1 1.6 S 8.0 0.0 46.0
15:15 7.6 73.0 998.2 3.2 SSW 8.0 0.0 46.0
15:20 7.4 75.0 998.3 0.0 SSW 8.0 0.0 46.0
15:25 7.3 75.0 998.5 0.0 SSE 8.0 0.0 46.0
15:30 7.3 74.0 998.5 1.6 SE 6.4 0.0 46.0
15:35 7.2 76.0 998.5 0.0 SSE 4.8 0.0 46.0
15:40 6.9 77.0 998.5 0.0 SSE 3.2 0.0 25.0
15:45 6.7 78.0 998.6 0.0 SSE 1.6 0.0 25.0
15:50 6.3 79.0 998.6 0.0 S 4.8 0.0 21.0
15:55 6.0 81.0 998.6 4.8 SSE 6.4 0.0 21.0
16:00 5.8 81.0 998.6 0.0 S 8.0 0.0 21.0
16:05 5.7 81.0 998.7 0.0 S 8.0 0.0 21.0
16:10 5.4 82.0 998.8 3.2 S 4.8 0.0 21.0
16:15 5.3 83.0 998.7 0.0 SE 8.0 0.0 21.0
16:20 5.2 83.0 998.7 1.6 SSE 8.0 0.0 21.0
16:25 5.1 83.0 998.7 4.8 SSE 8.0 0.0 21.0
16:30 5.1 83.0 998.7 3.2 S 9.7 0.0 21.0
16:35 5.1 83.0 998.7 0.0 S 9.7 0.0 21.0
16:40 5.0 83.0 998.8 0.0 S 6.4 0.0 0.0
16:45 4.8 83.0 999.0 3.2 S 3.2 0.0 0.0
16:50 4.7 83.0 999.1 0.0 S 3.2 0.0 0.0
16:55 4.5 84.0 999.1 1.6 S 4.8 0.0 0.0
17:00 4.3 85.0 999.1 3.2 S 6.4 0.0 0.0
17:05 4.2 85.0 999.3 0.0 S 6.4 0.0 0.0
17:10 4.1 86.0 999.6 0.0 S 3.2 0.0 0.0
17:15 4.1 86.0 999.5 0.0 S 1.6 0.0 0.0
17:20 4.0 87.0 999.6 0.0 S 1.6 0.0 0.0
17:25 3.9 86.0 999.7 1.6 S 1.6 0.0 0.0
17:30 3.8 86.0 999.6 0.0 S 1.6 0.0 0.0
17:35 3.7 86.0 999.6 0.0 S 3.2 0.0 0.0
17:40 3.4 86.0 999.7 0.0 S 3.2 0.0 0.0
17:45 3.2 86.0 999.8 0.0 S 1.6 0.0 0.0
17:50 3.1 87.0 999.8 0.0 S 1.6 0.0 0.0
17:55 2.9 87.0 999.9 0.0 S 1.6 0.0 0.0
18:00 2.8 87.0 1000.0 0.0 S 1.6 0.0 0.0
18:05 2.6 87.0 1000.0 0.0 S 4.8 0.0 0.0
18:10 2.3 87.0 1000.0 1.6 S 4.8 0.0 0.0
18:15 2.2 88.0 1000.1 0.0 S 4.8 0.0 0.0
18:20 2.0 87.0 1000.1 0.0 S 4.8 0.0 0.0
18:25 1.8 88.0 1000.2 1.6 S 4.8 0.0 0.0
18:30 1.7 89.0 1000.4 0.0 S 3.2 0.0 0.0
18:35 1.7 89.0 1000.4 1.6 SSE 3.2 0.0 0.0
18:40 1.6 89.0 1000.4 0.0 SSE 3.2 0.0 0.0
18:45 1.6 89.0 1000.5 0.0 S 3.2 0.0 0.0
18:50 1.5 89.0 1000.5 0.0 S 3.2 0.0 0.0
18:55 1.4 89.0 1000.5 0.0 S 1.6 0.0 0.0
19:00 1.3 89.0 1000.6 0.0 S 1.6 0.0 0.0
19:05 1.2 89.0 1000.5 1.6 S 3.2 0.0 0.0
19:10 1.1 89.0 1000.7 0.0 S 3.2 0.0 0.0
19:15 0.9 88.0 1000.5 1.6 S 8.0 0.0 0.0
19:20 0.9 90.0 1000.6 0.0 SSE 8.0 0.0 0.0
19:25 1.0 91.0 1000.8 3.2 S 6.4 0.0 0.0
19:30 0.9 89.0 1000.9 0.0 S 4.8 0.0 0.0
19:35 0.8 89.0 1000.8 0.0 SSE 4.8 0.0 0.0
19:40 0.7 90.0 1000.9 0.0 S 6.4 0.0 0.0
19:45 0.7 90.0 1001.0 0.0 S 6.4 0.0 0.0
19:50 0.6 90.0 1000.9 0.0 S 4.8 0.0 0.0
19:50 0.6 90.0 1000.8 0.0 S 4.8 0.0 0.0
19:55 0.4 89.0 1001.0 0.0 S 4.8 0.0 0.0
20:00 0.3 89.0 1001.1 4.8 S 4.8 0.0 0.0
20:05 0.1 89.0 1001.3 0.0 S 4.8 0.0 0.0
20:10 0.0 90.0 1001.2 0.0 S 4.8 0.0 0.0
20:15 -0.1 90.0 1001.3 0.0 S 4.8 0.0 0.0
20:20 -0.1 90.0 1001.4 0.0 S 4.8 0.0 0.0
20:25 -0.2 90.0 1001.4 0.0 S 4.8 0.0 0.0
20:30 -0.3 90.0 1001.4 0.0 S 4.8 0.0 0.0
20:35 -0.3 91.0 1001.5 1.6 S 4.8 0.0 0.0
Màxima 10.3 91.0 1003.0 12.9 S 17.7 0.0 608.0
Mínima -0.3 63.0 996.8
Total 0.0